• In Hungary
  • List of Countries
  • For 7 days
  • Water Temperature
  • Satellite Maps
  • Weather Map
  • News
  • Weather Widgets
  • user-avatar
    Login

    Hourly Weather Eisenhuttenstadt

    Today, 23 November, Thursday

    Time Temperature Precipitation Wind Pressure Humidity
    00:00 +5°C° 0 mm 3 mps 753 mmHg 88%
    01:00 +5°C° 0 mm 3 mps 753 mmHg 88%
    02:00 +5°C° 0 mm 3 mps 753 mmHg 87%
    03:00 +5°C° 0 mm 3 mps 753 mmHg 85%
    04:00 +5°C° 0 mm 3 mps 752 mmHg 84%
    05:00 +5°C° 0 mm 3 mps 752 mmHg 82%
    06:00 +5°C° 0 mm 4 mps 752 mmHg 80%
    07:00 +5°C° 0 mm 4 mps 752 mmHg 78%
    08:00 +6°C° 0 mm 4 mps 752 mmHg 73%
    09:00 +7°C° 0 mm 5 mps 752 mmHg 69%
    10:00 +8°C° 0 mm 5 mps 752 mmHg 64%
    11:00 +9°C° 0 mm 5 mps 752 mmHg 61%
    12:00 +10°C° 0 mm 5 mps 752 mmHg 58%
    13:00 +12°C° 0 mm 5 mps 752 mmHg 55%
    14:00 +12°C° 0 mm 5 mps 752 mmHg 58%
    15:00 +10°C° 0 mm 5 mps 752 mmHg 60%
    16:00 +10°C° 0 mm 5 mps 752 mmHg 63%
    17:00 +10°C° 0 mm 5 mps 753 mmHg 63%
    18:00 +9°C° 0 mm 5 mps 753 mmHg 64%
    19:00 +9°C° 0 mm 5 mps 753 mmHg 65%
    20:00 +9°C° 0 mm 5 mps 754 mmHg 67%
    21:00 +9°C° 0 mm 5 mps 754 mmHg 70%
    22:00 +10°C° 0 mm 4 mps 754 mmHg 73%
    23:00 +10°C° 0 mm 4 mps 755 mmHg 76%

    Tomorrow, 24 November, Friday

    Time Temperature Precipitation Wind Pressure Humidity
    00:00 +8°C° 0 mm 4 mps 755 mmHg 79%
    01:00 +8°C° 0 mm 4 mps 755 mmHg 82%
    02:00 +9°C° 0 mm 3 mps 756 mmHg 84%
    03:00 +8°C° 0 mm 3 mps 756 mmHg 86%
    04:00 +8°C° 0 mm 3 mps 756 mmHg 88%
    05:00 +8°C° 0 mm 3 mps 756 mmHg 89%
    06:00 +8°C° 0 mm 3 mps 756 mmHg 89%
    07:00 +8°C° 0 mm 3 mps 756 mmHg 90%
    08:00 +7°C° 0 mm 4 mps 755 mmHg 85%
    09:00 +8°C° 0 mm 4 mps 755 mmHg 81%
    10:00 +9°C° 0 mm 5 mps 755 mmHg 77%
    11:00 +10°C° 0.1 mm 5 mps 754 mmHg 74%
    12:00 +12°C° 0.1 mm 5 mps 754 mmHg 70%
    13:00 +13°C° 0.1 mm 5 mps 753 mmHg 67%
    14:00 +13°C° 0.3 mm 5 mps 753 mmHg 69%
    15:00 +12°C° 0.3 mm 5 mps 753 mmHg 70%
    16:00 +12°C° 0.3 mm 5 mps 753 mmHg 72%
    17:00 +12°C° 0 mm 5 mps 753 mmHg 72%
    18:00 +10°C° 0 mm 5 mps 753 mmHg 73%
    19:00 +10°C° 0 mm 5 mps 753 mmHg 73%
    20:00 +10°C° 0 mm 5 mps 754 mmHg 74%
    21:00 +10°C° 0 mm 5 mps 755 mmHg 76%
    22:00 +9°C° 0 mm 5 mps 755 mmHg 78%
    23:00 +8°C° 0 mm 4 mps 756 mmHg 79%

    Day after tomorrow, 25 November, Saturday

    Time Temperature Precipitation Wind Pressure Humidity
    00:00 +7°C° 0 mm 4 mps 756 mmHg 81%
    01:00 +7°C° 0 mm 3 mps 757 mmHg 82%
    02:00 +7°C° 0.1 mm 2 mps 757 mmHg 83%
    03:00 +6°C° 0.1 mm 2 mps 757 mmHg 84%
    04:00 +7°C° 0.1 mm 1 mps 757 mmHg 84%
    05:00 +7°C° 0.3 mm 1 mps 757 mmHg 86%
    06:00 +7°C° 0.3 mm 1 mps 757 mmHg 87%
    07:00 +6°C° 0.3 mm 1 mps 757 mmHg 88%
    08:00 +6°C° 0.9 mm 1 mps 757 mmHg 88%
    09:00 +6°C° 0.9 mm 1 mps 757 mmHg 89%
    10:00 +6°C° 0.9 mm 1 mps 756 mmHg 89%
    11:00 +5°C° 1 mm 2 mps 756 mmHg 88%
    12:00 +5°C° 1 mm 2 mps 755 mmHg 87%
    13:00 +4°C° 1 mm 3 mps 755 mmHg 86%
    14:00 +4°C° 1 mm 3 mps 755 mmHg 85%
    15:00 +4°C° 1 mm 3 mps 755 mmHg 84%
    16:00 +4°C° 1 mm 3 mps 754 mmHg 84%
    17:00 +3°C° 0.4 mm 3 mps 755 mmHg 84%
    18:00 +3°C° 0.4 mm 3 mps 755 mmHg 85%
    19:00 +4°C° 0.4 mm 2 mps 755 mmHg 85%
    20:00 +4°C° 0 mm 2 mps 755 mmHg 86%
    21:00 +3°C° 0 mm 2 mps 755 mmHg 87%
    22:00 +3°C° 0 mm 2 mps 755 mmHg 88%
    23:00 +3°C° 0 mm 2 mps 756 mmHg 88%

    26 November, Sunday

    Time Temperature Precipitation Wind Pressure Humidity
    00:00 +3°C° 0 mm 2 mps 756 mmHg 88%
    01:00 +3°C° 0 mm 2 mps 756 mmHg 89%
    02:00 +3°C° 0.1 mm 2 mps 757 mmHg 89%
    03:00 +3°C° 0.1 mm 2 mps 757 mmHg 89%
    04:00 +3°C° 0.1 mm 2 mps 757 mmHg 89%
    05:00 +2°C° 0 mm 3 mps 758 mmHg 88%
    06:00 +2°C° 0 mm 3 mps 758 mmHg 88%
    07:00 +2°C° 0 mm 3 mps 759 mmHg 87%
    08:00 +2°C° 0 mm 3 mps 759 mmHg 84%
    09:00 +1°C° 0 mm 4 mps 760 mmHg 81%
    10:00 +2°C° 0 mm 5 mps 760 mmHg 78%
    11:00 +2°C° 0 mm 5 mps 760 mmHg 75%
    12:00 +2°C° 0 mm 5 mps 760 mmHg 72%
    13:00 +3°C° 0 mm 5 mps 760 mmHg 70%
    14:00 +2°C° 0 mm 5 mps 760 mmHg 72%
    15:00 +1°C° 0 mm 4 mps 760 mmHg 74%
    16:00 +1°C° 0 mm 4 mps 760 mmHg 77%
    17:00 +1°C° 0 mm 4 mps 760 mmHg 77%
    18:00 +1°C° 0 mm 5 mps 760 mmHg 77%
    19:00 +1°C° 0 mm 5 mps 760 mmHg 77%
    20:00 +1°C° 0 mm 5 mps 760 mmHg 78%
    21:00 +1°C° 0 mm 5 mps 760 mmHg 78%
    22:00 +1°C° 0 mm 5 mps 760 mmHg 79%
    23:00 +1°C° 0 mm 5 mps 760 mmHg 79%

    27 November, Monday

    Time Temperature Precipitation Wind Pressure Humidity
    00:00 +1°C° 0 mm 5 mps 760 mmHg 80%
    01:00 +1°C° 0 mm 5 mps 760 mmHg 80%
    02:00 +1°C° 0 mm 5 mps 760 mmHg 81%
    03:00 0°C° 0 mm 5 mps 760 mmHg 81%
    04:00 0°C° 0 mm 5 mps 760 mmHg 82%
    05:00 0°C° 0 mm 5 mps 760 mmHg 83%
    06:00 0°C° 0 mm 5 mps 760 mmHg 83%
    07:00 0°C° 0 mm 5 mps 760 mmHg 83%
    08:00 +1°C° 0 mm 5 mps 760 mmHg 82%
    09:00 +1°C° 0 mm 5 mps 760 mmHg 80%
    10:00 +2°C° 0 mm 5 mps 760 mmHg 79%
    11:00 +2°C° 0 mm 5 mps 760 mmHg 77%
    12:00 +2°C° 0 mm 5 mps 760 mmHg 75%
    13:00 +3°C° 0 mm 5 mps 760 mmHg 73%
    14:00 +3°C° 0 mm 5 mps 760 mmHg 75%
    15:00 +3°C° 0 mm 4 mps 759 mmHg 76%
    16:00 +3°C° 0 mm 4 mps 759 mmHg 78%
    17:00 +3°C° 0 mm 4 mps 759 mmHg 78%
    18:00 +3°C° 0 mm 4 mps 759 mmHg 78%
    19:00 +3°C° 0 mm 4 mps 758 mmHg 78%
    20:00 +1°C° 0 mm 4 mps 758 mmHg 78%
    21:00 +1°C° 0 mm 5 mps 757 mmHg 77%
    22:00 +1°C° 0 mm 5 mps 757 mmHg 76%
    23:00 +1°C° 0.4 mm 5 mps 756 mmHg 78%

    28 November, Tuesday

    Time Temperature Precipitation Wind Pressure Humidity
    00:00 +1°C° 0.4 mm 5 mps 756 mmHg 79%
    01:00 +1°C° 0.4 mm 5 mps 755 mmHg 80%
    02:00 +2°C° 0.4 mm 5 mps 754 mmHg 81%
    03:00 +2°C° 0.4 mm 5 mps 754 mmHg 82%
    04:00 +2°C° 0.4 mm 5 mps 753 mmHg 82%
    05:00 +2°C° 0.2 mm 5 mps 753 mmHg 83%
    06:00 +3°C° 0.2 mm 4 mps 753 mmHg 84%
    07:00 +3°C° 0.2 mm 4 mps 753 mmHg 85%
    08:00 +3°C° 0.2 mm 5 mps 752 mmHg 84%
    09:00 +3°C° 0.2 mm 5 mps 752 mmHg 82%
    10:00 +3°C° 0.2 mm 5 mps 752 mmHg 81%
    11:00 +5°C° 0.1 mm 5 mps 752 mmHg 79%
    12:00 +5°C° 0.1 mm 5 mps 751 mmHg 77%
    13:00 +5°C° 0.1 mm 5 mps 751 mmHg 75%
    14:00 +5°C° 0 mm 5 mps 751 mmHg 77%
    15:00 +5°C° 0 mm 4 mps 750 mmHg 78%
    16:00 +4°C° 0 mm 4 mps 750 mmHg 80%
    17:00 +4°C° 0 mm 4 mps 750 mmHg 82%
    18:00 +4°C° 0 mm 4 mps 750 mmHg 83%
    19:00 +3°C° 0 mm 4 mps 750 mmHg 85%
    20:00 +3°C° 0.1 mm 4 mps 749 mmHg 84%
    21:00 +2°C° 0.1 mm 5 mps 749 mmHg 83%
    22:00 +3°C° 0.1 mm 5 mps 749 mmHg 82%
    23:00 +3°C° 0.3 mm 5 mps 748 mmHg 81%
    Show more